Torna al catalogo

FENGYUN 1C DEB

AttivoSSO
NORAD 30118·DEBRIS·🇨🇳 China

Lanciato May 10, 1999 da Taiyuan Satellite Launch Center

Loading…

Prossimi Passaggi (prossime 24 ore)

TLE

AggiornatoSource: Space-Track

Epoca: Sep 14, 2026, 06:39 UTC

1 30118U 99025RX  26257.27744536  .00000092  00000-0  81133-4 0  9999
2 30118  98.8098 258.0695 0084564   7.7139   4.9214 14.05220524  7996

Traccia FENGYUN 1C DEB in tempo reale con AllMySat

Download on the App Store